Newark Heath, OH

6:06 PM EDT on September 20, 2017 (GMT -0400)
Newark Heath

Weather History for KVTA - March, 2014

Change the Weather History Date:

Saturday, March 29, 2014

  Actual Average Record
Temperature  
Mean Temperature 37 °F -  
Max Temperature 41 °F 59 °F 79 °F (1963)
Min Temperature 33 °F 37 °F 15 °F (2015)
Degree Days  
Heating Degree Days 28    
Moisture  
Dew Point 32 °F    
Average Humidity 84    
Maximum Humidity 89    
Minimum Humidity 70    
Precipitation  
Precipitation 1.02 in - - ()
Sea Level Pressure  
Sea Level Pressure 29.94 in    
Wind  
Wind Speed 9 mph (North)    
Max Wind Speed 21 mph    
Max Gust Speed 28 mph    
Visibility 4 miles    
Events Rain , Snow    
Averages and records for this station are not official NWS values.
T = Trace of Precipitation, MM = Missing Value Source: NWS Daily Summary

Daily Weather History Graph

Daily Weather History Graph

Search for Another Location

Airport or City:

Trip Planner

Search our weather history database for the weather conditions in past years. The results will help you decide how hot, cold, wet, or windy it might be!

Date:

Astronomy

Mar. 29, 2014 Rise Set
Actual Time 7:18 AM EDT 7:51 PM EDT
Civil Twilight 6:51 AM EDT 8:18 PM EDT
Nautical Twilight 6:19 AM EDT 8:50 PM EDT
Astronomical Twilight 5:46 AM EDT 9:23 PM EDT
Moon 6:26 AM EDT (3/29) 6:54 PM EDT (3/29)
Length of Visible Light 13h 26m
Length of Day
12h 32m
Waning Crescent, 2% of the Moon is Illuminated
Mar 29
Waning Crescent
Mar 30
New
Apr 7
First Quarter
Apr 15
Full
Apr 22
Last Quarter

Hourly Weather History & Observations

Time (EDT) Temp. Windchill Dew Point Humidity Pressure Visibility Wind Dir Wind Speed Gust Speed Precip Events Conditions
12:54 AM 41.0 °F 36.4 °F 34.0 °F 76% 30.13 in 10.0 mi NE 6.9 mph - N/A   Clear
1:54 AM 39.0 °F 35.7 °F 33.1 °F 79% 30.14 in 10.0 mi NE 4.6 mph - N/A   Clear
2:54 AM 37.9 °F 34.4 °F 32.0 °F 79% 30.10 in 10.0 mi ENE 4.6 mph - N/A   Clear
3:54 AM 37.0 °F - 32.0 °F 82% 30.07 in 9.0 mi Calm Calm - N/A   Clear
4:54 AM 37.9 °F 33.5 °F 32.0 °F 79% 30.05 in 8.0 mi NE 5.8 mph - N/A   Mostly Cloudy
5:17 AM 37.9 °F 31.5 °F 33.1 °F 83% 30.05 in 9.0 mi NE 9.2 mph - N/A   Overcast
5:54 AM 39.0 °F 33.4 °F 33.1 °F 79% 30.06 in 9.0 mi ENE 8.1 mph - N/A   Overcast
6:54 AM 39.0 °F 34.0 °F 34.0 °F 82% 30.03 in 9.0 mi NE 6.9 mph - N/A   Overcast
7:54 AM 39.0 °F 31.4 °F 33.1 °F 79% 30.02 in 10.0 mi ENE 12.7 mph - N/A   Overcast
8:05 AM 39.0 °F 32.8 °F 32.0 °F 76% 30.00 in 10.0 mi ENE 9.2 mph 19.6 mph N/A   Overcast
8:51 AM 39.2 °F 31.6 °F 30.2 °F 70% 29.98 in 10.0 mi ENE 12.7 mph 20.7 mph N/A   Overcast
8:54 AM 39.0 °F 31.0 °F 30.0 °F 70% 29.99 in 10.0 mi ENE 13.8 mph 20.7 mph N/A   Overcast
9:54 AM 39.0 °F 33.4 °F 30.0 °F 70% 29.97 in 10.0 mi NE 8.1 mph - N/A   Overcast
10:54 AM 37.9 °F 33.5 °F 33.1 °F 83% 29.96 in 5.0 mi Variable 5.8 mph - 0.02 in Rain Light Rain
11:10 AM 37.0 °F 31.0 °F 32.0 °F 82% 29.94 in 2.5 mi NE 8.1 mph 17.3 mph 0.03 in Rain Light Rain
11:19 AM 37.0 °F 32.4 °F 33.1 °F 86% 29.94 in 2.5 mi NNE 5.8 mph - 0.04 in Rain Light Rain
11:22 AM 37.0 °F 31.0 °F 33.1 °F 86% 29.94 in 3.0 mi North 8.1 mph - 0.04 in Rain Light Rain
11:39 AM 37.0 °F 29.3 °F 33.1 °F 86% 29.94 in 2.5 mi North 11.5 mph - 0.08 in Rain Rain
11:54 AM 36.0 °F 28.5 °F 33.1 °F 89% 29.94 in 1.5 mi North 10.4 mph - 0.13 in Rain Rain
11:57 AM 36.0 °F 27.5 °F 33.1 °F 89% 29.92 in 2.0 mi North 12.7 mph - 0.01 in Rain Light Rain
11:59 AM 36.0 °F 28.0 °F 33.1 °F 89% 29.92 in 2.0 mi North 11.5 mph - 0.01 in Rain Light Rain
12:09 PM 36.0 °F 28.5 °F 32.0 °F 86% 29.90 in 3.0 mi North 10.4 mph 20.7 mph 0.01 in Rain Light Rain
12:34 PM 36.0 °F 29.6 °F 32.0 °F 86% 29.91 in 1.8 mi North 8.1 mph - 0.05 in Rain Rain
12:41 PM 36.0 °F 27.5 °F 32.0 °F 86% 29.91 in 1.8 mi North 12.7 mph 19.6 mph 0.07 in Rain Rain
12:54 PM 36.0 °F 28.0 °F 32.0 °F 86% 29.91 in 1.5 mi NNE 11.5 mph 24.2 mph 0.13 in Rain Heavy Rain
1:07 PM 36.0 °F 29.0 °F 32.0 °F 86% 29.89 in 2.5 mi NNE 9.2 mph - 0.03 in Rain Light Rain
1:21 PM 35.1 °F 27.4 °F 32.0 °F 89% 29.89 in 1.5 mi NNE 10.4 mph 16.1 mph 0.09 in Rain Rain
1:32 PM 36.0 °F 28.5 °F 32.0 °F 86% 29.89 in 2.5 mi North 10.4 mph 18.4 mph 0.11 in Rain Rain
1:41 PM 36.0 °F 28.0 °F 32.0 °F 86% 29.90 in 3.0 mi North 11.5 mph 18.4 mph 0.13 in Rain Light Rain
1:52 PM 35.6 °F 29.2 °F 32.0 °F 87% 29.88 in 2.0 mi NNE 8.1 mph - 0.17 in Rain Rain
1:54 PM 36.0 °F 29.6 °F 32.0 °F 86% 29.90 in 1.8 mi North 8.1 mph - 0.18 in Rain Rain
2:01 PM 36.0 °F 29.6 °F 33.1 °F 89% 29.88 in 3.0 mi North 8.1 mph - 0.01 in Rain Light Rain
2:14 PM 36.0 °F 29.0 °F 33.1 °F 89% 29.88 in 3.0 mi North 9.2 mph - 0.03 in Rain Light Rain
2:19 PM 36.0 °F 29.6 °F 33.1 °F 89% 29.88 in 2.5 mi North 8.1 mph - 0.04 in Rain Rain
2:43 PM 36.0 °F 28.5 °F 33.1 °F 89% 29.87 in 4.0 mi North 10.4 mph 17.3 mph 0.09 in Rain Light Rain
2:54 PM 37.0 °F 29.8 °F 33.1 °F 86% 29.88 in 4.0 mi North 10.4 mph 19.6 mph 0.09 in Rain Light Rain
3:54 PM 36.0 °F 27.5 °F 32.0 °F 86% 29.86 in 5.0 mi North 12.7 mph 21.9 mph 0.05 in Rain Light Rain
4:54 PM 36.0 °F 26.7 °F 32.0 °F 86% 29.84 in 4.0 mi NNE 15.0 mph 25.3 mph 0.07 in Rain Light Rain
5:54 PM 35.1 °F 25.9 °F 30.9 °F 85% 29.85 in 5.0 mi North 13.8 mph 20.7 mph 0.08 in Rain Light Rain
6:54 PM 34.0 °F 24.2 °F 30.0 °F 85% 29.87 in 5.0 mi North 15.0 mph 24.2 mph 0.11 in Snow Light Snow
7:26 PM 34.0 °F 24.6 °F 30.0 °F 85% 29.87 in 1.8 mi North 13.8 mph 26.5 mph 0.04 in Snow Light Snow
7:54 PM 33.1 °F 22.6 °F 30.0 °F 89% 29.90 in 1.8 mi North 16.1 mph 25.3 mph 0.08 in Snow Light Snow
8:03 PM 33.1 °F 23.0 °F 30.0 °F 89% 29.88 in 2.5 mi NNW 15.0 mph - 0.01 in Snow Light Snow
8:06 PM 34.0 °F 24.2 °F 30.0 °F 85% 29.88 in 3.0 mi NNW 15.0 mph 20.7 mph 0.02 in Snow Light Snow
8:21 PM 34.0 °F 25.0 °F 30.0 °F 85% 29.89 in 3.0 mi NNW 12.7 mph 21.9 mph 0.03 in Snow Light Snow
8:30 PM 34.0 °F 23.8 °F 30.0 °F 85% 29.89 in 2.0 mi NNW 16.1 mph 24.2 mph 0.03 in Snow Light Snow
8:47 PM 34.0 °F 23.8 °F 30.0 °F 85% 29.90 in 1.8 mi NNW 16.1 mph 26.5 mph 0.05 in Snow Light Snow
8:54 PM 33.1 °F 22.6 °F 30.0 °F 89% 29.92 in 1.8 mi North 16.1 mph 27.6 mph 0.06 in Snow Light Snow
9:33 PM 33.1 °F 21.2 °F 30.0 °F 89% 29.92 in 1.5 mi North 20.7 mph 27.6 mph 0.01 in Snow Light Snow
9:42 PM 33.1 °F 22.6 °F 30.0 °F 89% 29.92 in 1.5 mi NNW 16.1 mph 27.6 mph 0.01 in Snow Light Snow
9:54 PM 33.1 °F 22.6 °F 30.0 °F 89% 29.95 in 1.5 mi NNW 16.1 mph 25.3 mph 0.01 in Snow Light Snow
10:19 PM 33.1 °F 23.4 °F 28.9 °F 85% 29.94 in 1.8 mi NNW 13.8 mph 24.2 mph 0.01 in Snow Light Snow
10:27 PM 33.1 °F 23.0 °F 28.9 °F 85% 29.94 in 2.0 mi NNW 15.0 mph 24.2 mph 0.01 in Snow Light Snow
10:54 PM 33.1 °F 23.9 °F 28.9 °F 85% 29.97 in 2.0 mi NNW 12.7 mph 26.5 mph 0.01 in Snow Light Snow
11:35 PM 34.0 °F 24.6 °F 28.9 °F 82% 29.97 in 2.5 mi NNW 13.8 mph 24.2 mph 0.00 in Snow Light Snow
11:45 PM 34.0 °F 25.0 °F 28.9 °F 82% 29.97 in 2.5 mi North 12.7 mph 21.9 mph 0.00 in Snow Light Snow
11:54 PM 33.1 °F 23.9 °F 28.9 °F 85% 29.99 in 2.0 mi NNW 12.7 mph 21.9 mph 0.00 in Snow Light Snow